Weather History for Hot Springs, VA

Change the Weather History Date:

Saturday, February 18, 2012

  Actual Average Record
Temperature  
Mean Temperature 38 °F -  
Max Temperature 46 °F 36 °F 55 °F (2011)
Min Temperature 30 °F 21 °F 6 °F (2001)
Degree Days  
Heating Degree Days 27    
Moisture  
Dew Point 22 °F    
Average Humidity 53    
Maximum Humidity 69    
Minimum Humidity 34    
Precipitation  
Precipitation 0.00 in - - ()
Sea Level Pressure  
Sea Level Pressure 30.02 in    
Wind  
Wind Speed 11 mph (West)    
Max Wind Speed 20 mph    
Max Gust Speed 29 mph    
Visibility 10 miles    
Events      
Averages and records for this station are not official NWS values.
T = Trace of Precipitation, MM = Missing Value Source: NWS Daily Summary

Daily Weather History Graph

Daily Weather History Graph

Search for Another Location

Airport:

Trip Planner

Search our weather history database for the weather conditions in past years. The results will help you decide how hot, cold, wet, or windy it might be!

Date:

Astronomy

Feb. 18, 2012 Rise Set
Actual Time 7:06 AM EST 6:00 PM EST
Civil Twilight 6:39 AM EST 6:27 PM EST
Nautical Twilight 6:08 AM EST 6:58 PM EST
Astronomical Twilight 5:38 AM EST 7:28 PM EST
Moon 4:42 AM EST (2/18) 2:58 PM EST (2/18)
Length of Visible Light 11h 48m
Length of Day
10h 54m
Waning Crescent, 11% of the Moon is Illuminated
Feb 18
Waning Crescent
Feb 21
New
Feb 29
First Quarter
Mar 8
Full
Mar 14
Last Quarter

Hourly Weather History & Observations

Time (EST) Temp. Windchill Dew Point Humidity Pressure Visibility Wind Dir Wind Speed Gust Speed Precip Events Conditions
12:35 AM 30.2 °F 21.3 °F 21.2 °F 69% 30.08 in 10.0 mi West 10.4 mph - N/A   Clear
12:55 AM 30.2 °F 21.3 °F 21.2 °F 69% 30.08 in 10.0 mi West 10.4 mph - N/A   Clear
1:15 AM 30.2 °F 21.3 °F 21.2 °F 69% 30.07 in 10.0 mi West 10.4 mph - N/A   Clear
1:35 AM 30.2 °F 20.8 °F 21.2 °F 69% 30.07 in 10.0 mi WNW 11.5 mph - N/A   Clear
1:55 AM 30.2 °F 21.9 °F 21.2 °F 69% 30.07 in 10.0 mi WNW 9.2 mph - N/A   Clear
2:15 AM 30.2 °F 21.3 °F 21.2 °F 69% 30.08 in 10.0 mi West 10.4 mph - N/A   Clear
2:35 AM 30.2 °F 21.9 °F 21.2 °F 69% 30.07 in 10.0 mi West 9.2 mph - N/A   Clear
2:55 AM 30.2 °F 21.9 °F 21.2 °F 69% 30.06 in 10.0 mi West 9.2 mph - N/A   Clear
3:15 AM 30.2 °F 21.9 °F 21.2 °F 69% 30.06 in 10.0 mi West 9.2 mph - N/A   Clear
3:35 AM 30.2 °F 21.9 °F 21.2 °F 69% 30.06 in 10.0 mi West 9.2 mph - N/A   Scattered Clouds
3:55 AM 30.2 °F 20.8 °F 21.2 °F 69% 30.05 in 10.0 mi West 11.5 mph - N/A   Scattered Clouds
4:15 AM 30.2 °F 21.3 °F 21.2 °F 69% 30.05 in 10.0 mi West 10.4 mph - N/A   Clear
4:35 AM 30.2 °F 21.3 °F 21.2 °F 69% 30.05 in 10.0 mi West 10.4 mph - N/A   Clear
4:55 AM 30.2 °F 21.3 °F 21.2 °F 69% 30.05 in 10.0 mi West 10.4 mph - N/A   Clear
5:35 AM 30.2 °F 21.9 °F 21.2 °F 69% 30.05 in 10.0 mi West 9.2 mph - N/A   Clear
5:55 AM 30.2 °F 21.9 °F 21.2 °F 69% 30.05 in 10.0 mi West 9.2 mph - N/A   Clear
6:16 AM 30.2 °F 22.6 °F 21.2 °F 69% 30.05 in 10.0 mi West 8.1 mph - N/A   Clear
6:35 AM 30.2 °F 22.6 °F 21.2 °F 69% 30.05 in 10.0 mi West 8.1 mph - N/A   Clear
6:55 AM 30.2 °F 21.9 °F 21.2 °F 69% 30.05 in 10.0 mi West 9.2 mph - N/A   Clear
7:15 AM 32.0 °F 24.8 °F 21.2 °F 64% 30.05 in 10.0 mi West 8.1 mph - N/A   Clear
7:35 AM 33.8 °F 27.0 °F 19.4 °F 56% 30.05 in 10.0 mi WSW 8.1 mph - N/A   Clear
7:55 AM 33.8 °F 27.7 °F 19.4 °F 56% 30.05 in 10.0 mi WSW 6.9 mph - N/A   Clear
8:35 AM 37.4 °F 31.4 °F 21.2 °F 52% 30.05 in 10.0 mi WSW 8.1 mph - N/A   Clear
9:15 AM 39.2 °F 32.5 °F 21.2 °F 49% 30.05 in 10.0 mi WSW 10.4 mph - N/A   Scattered Clouds
9:35 AM 37.4 °F 30.3 °F 21.2 °F 52% 30.06 in 10.0 mi WSW 10.4 mph - N/A   Scattered Clouds
10:15 AM 39.2 °F 34.2 °F 24.8 °F 56% 30.05 in 10.0 mi West 6.9 mph - N/A   Clear
10:36 AM 39.2 °F 32.5 °F 23.0 °F 52% 30.04 in 10.0 mi WSW 10.4 mph - N/A   Clear
10:55 AM 41.0 °F 35.2 °F 24.8 °F 53% 30.04 in 10.0 mi West 9.2 mph - N/A   Clear
11:15 AM 42.8 °F 37.5 °F 24.8 °F 49% 30.03 in 10.0 mi West 9.2 mph - N/A   Clear
11:35 AM 42.8 °F 37.0 °F 26.6 °F 53% 30.03 in 10.0 mi West 10.4 mph 16.1 mph N/A   Clear
11:57 AM 42.8 °F 35.8 °F 23.0 °F 46% 30.03 in 10.0 mi West 13.8 mph 17.3 mph N/A   Clear
12:15 PM 44.6 °F 38.8 °F 24.8 °F 46% 30.03 in 10.0 mi WSW 11.5 mph 20.7 mph N/A   Clear
12:35 PM 44.6 °F 39.7 °F 24.8 °F 46% 30.02 in 10.0 mi West 9.2 mph - N/A   Clear
12:55 PM 46.4 °F 41.5 °F 24.8 °F 43% 30.00 in 10.0 mi West 10.4 mph - N/A   Clear
1:15 PM 46.4 °F 40.4 °F 24.8 °F 43% 29.98 in 10.0 mi West 13.8 mph 19.6 mph N/A   Clear
1:35 PM 46.4 °F 39.5 °F 21.2 °F 37% 29.97 in 10.0 mi West 17.3 mph 23.0 mph N/A   Clear
1:55 PM 46.4 °F 40.4 °F 21.2 °F 37% 29.97 in 10.0 mi West 13.8 mph 21.9 mph N/A   Clear
2:15 PM 46.4 °F 39.0 °F 21.2 °F 37% 29.96 in 10.0 mi West 19.6 mph 23.0 mph N/A   Clear
2:35 PM 46.4 °F 40.1 °F 21.2 °F 37% 29.96 in 10.0 mi West 15.0 mph 28.8 mph N/A   Clear
2:57 PM 46.4 °F 39.8 °F 21.2 °F 37% 29.96 in 10.0 mi West 16.1 mph 26.5 mph N/A   Clear
3:15 PM 46.4 °F 39.2 °F 21.2 °F 37% 29.96 in 10.0 mi West 18.4 mph 25.3 mph N/A   Scattered Clouds
3:35 PM 46.4 °F 39.2 °F 19.4 °F 34% 29.96 in 10.0 mi West 18.4 mph 26.5 mph N/A   Clear
4:15 PM 44.6 °F 36.6 °F 19.4 °F 37% 29.97 in 10.0 mi West 19.6 mph 28.8 mph N/A   Clear
4:35 PM 44.6 °F 36.6 °F 19.4 °F 37% 29.98 in 10.0 mi West 19.6 mph 25.3 mph N/A   Clear
4:55 PM 44.6 °F 37.4 °F 19.4 °F 37% 29.98 in 10.0 mi West 16.1 mph 25.3 mph N/A   Clear
5:15 PM 44.6 °F 37.2 °F 19.4 °F 37% 29.98 in 10.0 mi West 17.3 mph 21.9 mph N/A   Clear
5:37 PM 42.8 °F 36.6 °F 19.4 °F 39% 29.97 in 10.0 mi West 11.5 mph 18.4 mph N/A   Clear
5:55 PM 42.8 °F 35.8 °F 19.4 °F 39% 29.97 in 10.0 mi West 13.8 mph 21.9 mph N/A   Clear
6:15 PM 42.8 °F 35.1 °F 19.4 °F 39% 29.97 in 10.0 mi West 16.1 mph 21.9 mph N/A   Clear
6:35 PM 41.0 °F 33.1 °F 19.4 °F 42% 29.97 in 10.0 mi West 15.0 mph 19.6 mph N/A   Clear
6:55 PM 41.0 °F 33.1 °F 21.2 °F 45% 29.98 in 10.0 mi West 15.0 mph 19.6 mph N/A   Clear
7:15 PM 39.2 °F 32.5 °F 21.2 °F 49% 29.98 in 10.0 mi WNW 10.4 mph 18.4 mph N/A   Clear
7:35 PM 39.2 °F 32.5 °F 21.2 °F 49% 29.98 in 10.0 mi WNW 10.4 mph - N/A   Clear
8:15 PM 39.2 °F 31.6 °F 21.2 °F 49% 29.97 in 10.0 mi WNW 12.7 mph 21.9 mph N/A   Clear
8:35 PM 39.2 °F 33.6 °F 21.2 °F 49% 29.98 in 10.0 mi WNW 8.1 mph - N/A   Clear
8:56 PM 39.2 °F 33.6 °F 21.2 °F 49% 29.99 in 10.0 mi WNW 8.1 mph - N/A   Clear
9:17 PM 37.4 °F 30.8 °F 23.0 °F 56% 30.00 in 10.0 mi NW 9.2 mph - N/A   Clear
9:35 PM 37.4 °F 30.8 °F 23.0 °F 56% 30.01 in 10.0 mi WNW 9.2 mph 18.4 mph N/A   Clear
9:55 PM 37.4 °F 32.1 °F 23.0 °F 56% 30.00 in 10.0 mi WNW 6.9 mph - N/A   Clear
10:15 PM 37.4 °F 31.4 °F 24.8 °F 60% 30.02 in 10.0 mi WNW 8.1 mph - N/A   Clear
10:36 PM 37.4 °F 32.8 °F 24.8 °F 60% 30.01 in 10.0 mi NNW 5.8 mph - N/A   Clear
10:55 PM 37.4 °F 32.8 °F 24.8 °F 60% 30.01 in 10.0 mi NW 5.8 mph - N/A   Clear
11:16 PM 37.4 °F 33.8 °F 26.6 °F 65% 30.01 in 10.0 mi NNW 4.6 mph - N/A   Clear
11:35 PM 35.6 °F 30.7 °F 26.6 °F 70% 30.01 in 10.0 mi NNW 5.8 mph - N/A   Clear